Weather History for Bozeman, MT

Change the Weather History Date:

Sunday, June 2, 2013

  Actual Average Record
Temperature  
Mean Temperature 57 °F 58 °F  
Max Temperature 71 °F 73 °F 87 °F (2006)
Min Temperature 42 °F 43 °F 30 °F (1971)
Degree Days  
Heating Degree Days 8    
Month to date heating degree days 23  
Since 1 June heating degree days 23  
Since 1 July heating degree days 7875  
Cooling Degree Days 0    
Month to date cooling degree days 0  
Year to date cooling degree days 2  
Since 1 June cooling degree days 0  
Growing Degree Days 6 (Base 50)    
Moisture  
Dew Point 43 °F    
Average Humidity 65    
Maximum Humidity 93    
Minimum Humidity 37    
Precipitation  
Precipitation 0.32 in 0.10 in 0.72 in (1943)
Month to date precipitation 0.32 0.20  
Year to date precipitation 4.21 6.10  
Snow  
Snow 0.00 in 0.10 in 0.50 in (1943)
Month to date snowfall 0.0 0.1  
Since 1 June snowfall 0.0 0.1  
Since 1 July snowfall 24.6 40.0  
Snow Depth 0.00 in    
Sea Level Pressure  
Sea Level Pressure 29.86 in    
Wind  
Wind Speed 6 mph (WNW)    
Max Wind Speed 23 mph    
Max Gust Speed 31 mph    
Visibility 9 miles    
Events Rain    
T = Trace of Precipitation, MM = Missing Value Source: NWS Daily Summary

Daily Weather History Graph

Daily Weather History Graph

Search for Another Location

Airport:

Trip Planner

Search our weather history database for the weather conditions in past years. The results will help you decide how hot, cold, wet, or windy it might be!

Date:

Astronomy

Jun. 02, 2013 Rise Set
Actual Time 5:37 AM MDT 9:08 PM MDT
Civil Twilight 5:00 AM MDT 9:45 PM MDT
Nautical Twilight 4:10 AM MDT 10:35 PM MDT
Astronomical Twilight 3:06 AM MDT 11:40 PM MDT
Moon 2:22 AM MDT (6/2) 3:27 PM MDT (6/2)
Length of Visible Light 16h 45m
Length of Day
15h 30m
Waning Crescent, 30% of the Moon is Illuminated
Jun 2
Waning Crescent
Jun 8
New
Jun 16
First Quarter
Jun 23
Full
Jun 29
Last Quarter

Hourly Weather History & Observations

Time (MDT) Temp. Windchill Dew Point Humidity Pressure Visibility Wind Dir Wind Speed Gust Speed Precip Events Conditions
12:56 AM 51.1 °F - 39.0 °F 63% 29.99 in 10.0 mi Calm Calm - N/A   Clear
1:56 AM 52.0 °F - 41.0 °F 66% 29.96 in 10.0 mi SSW 4.6 mph - N/A   Mostly Cloudy
2:56 AM 50.0 °F - 41.0 °F 71% 29.93 in 10.0 mi Calm Calm - N/A   Overcast
3:56 AM 45.0 °F 42.6 °F 41.0 °F 86% 29.93 in 10.0 mi WNW 4.6 mph - N/A   Scattered Clouds
4:56 AM 44.1 °F 40.8 °F 39.9 °F 85% 29.94 in 10.0 mi NE 5.8 mph - N/A   Mostly Cloudy
5:56 AM 44.1 °F 40.1 °F 39.9 °F 85% 29.93 in 10.0 mi South 6.9 mph - N/A   Clear
6:56 AM 48.0 °F - 41.0 °F 77% 29.92 in 10.0 mi South 5.8 mph - N/A   Clear
7:56 AM 53.1 °F - 41.0 °F 64% 29.91 in 10.0 mi Calm Calm - N/A   Clear
8:56 AM 57.0 °F - 43.0 °F 59% 29.89 in 10.0 mi Calm Calm - N/A   Clear
9:56 AM 59.0 °F - 44.1 °F 58% 29.86 in 10.0 mi Calm Calm - N/A   Clear
10:56 AM 62.1 °F - 45.0 °F 53% 29.84 in 10.0 mi North 3.5 mph - N/A   Clear
11:56 AM 63.0 °F - 39.9 °F 43% 29.81 in 10.0 mi West 3.5 mph - N/A   Partly Cloudy
12:56 PM 64.0 °F - 44.1 °F 48% 29.77 in 10.0 mi NNE 5.8 mph - N/A   Overcast
1:56 PM 68.0 °F - 44.1 °F 42% 29.70 in 10.0 mi North 9.2 mph - N/A   Clear
2:56 PM 66.0 °F - 39.9 °F 38% 29.69 in 10.0 mi NW 12.7 mph - N/A   Mostly Cloudy
3:56 PM 60.1 °F - 48.0 °F 64% 29.75 in 10.0 mi North 16.1 mph - 0.00 in Rain Light Rain
4:56 PM 61.0 °F - 45.0 °F 56% 29.77 in 10.0 mi NNW 10.4 mph - 0.00 in   Overcast
5:56 PM 53.1 °F - 48.0 °F 83% 29.79 in 10.0 mi WNW 11.5 mph - 0.01 in Rain Light Rain
6:56 PM 50.0 °F - 45.0 °F 83% 29.82 in 10.0 mi WNW 10.4 mph - 0.01 in Rain Light Rain
7:34 PM 48.2 °F - 44.6 °F 87% 29.86 in 2.5 mi WNW 13.8 mph - 0.07 in Rain Light Rain
7:56 PM 46.9 °F - 45.0 °F 93% 29.84 in 2.5 mi NW 8.1 mph - 0.11 in Rain Light Rain
8:03 PM 46.4 °F 41.9 °F 44.6 °F 93% 29.88 in 4.0 mi NW 9.2 mph - 0.00 in Rain Light Rain
8:56 PM 46.9 °F - 44.1 °F 90% 29.87 in 6.0 mi WNW 4.6 mph - 0.05 in Rain Light Rain
9:56 PM 46.9 °F - 44.1 °F 90% 29.88 in 6.0 mi South 4.6 mph - 0.07 in Rain Light Rain
10:19 PM 46.4 °F 43.5 °F 44.6 °F 93% 29.93 in 7.0 mi South 5.8 mph - 0.02 in Rain Light Rain
10:56 PM 46.9 °F - 44.1 °F 90% 29.87 in 10.0 mi SSW 4.6 mph - 0.05 in Rain Light Rain
11:16 PM 46.4 °F 42.9 °F 44.6 °F 93% 29.92 in 10.0 mi SSE 6.9 mph - 0.01 in Rain Light Rain
11:56 PM 46.9 °F - 43.0 °F 86% 29.84 in 10.0 mi ESE 5.8 mph - 0.02 in   Overcast